Plattsburgh, NY

1:02 PM EDT on August 23, 2017 (GMT -0400)
Plattsburgh International

Weather History for KPBG - August, 2013

Change the Weather History Date:

Sunday, August 18, 2013

  Actual Average Record
Temperature  
Mean Temperature 63 °F 68 °F  
Max Temperature 77 °F 79 °F 90 °F (1956)
Min Temperature 49 °F 57 °F 45 °F (1981)
Degree Days  
Heating Degree Days 2 1  
Month to date heating degree days 6  
Since 1 June heating degree days 102  
Since 1 July heating degree days 17  
Cooling Degree Days 0 3  
Month to date cooling degree days 35 71  
Year to date cooling degree days 322 284  
Since 1 June cooling degree days 302 276  
Growing Degree Days 12 (Base 50)    
Moisture  
Dew Point 56 °F    
Average Humidity 75    
Maximum Humidity 100    
Minimum Humidity 50    
Precipitation  
Precipitation 0.00 in - 0.87 in (2017)
Month to date precipitation 1.63  
Year to date precipitation 22.19  
Sea Level Pressure  
Sea Level Pressure 30.19 in    
Wind  
Wind Speed 4 mph (SSE)    
Max Wind Speed 14 mph    
Max Gust Speed 17 mph    
Visibility 9 miles    
Events      
T = Trace of Precipitation, MM = Missing Value Source: NWS Daily Summary

Daily Weather History Graph

Daily Weather History Graph

Search for Another Location

Airport or City:

Trip Planner

Search our weather history database for the weather conditions in past years. The results will help you decide how hot, cold, wet, or windy it might be!

Date:

Astronomy

Aug. 18, 2013 Rise Set
Actual Time 6:00 AM EDT 7:54 PM EDT
Civil Twilight 5:28 AM EDT 8:25 PM EDT
Nautical Twilight 4:50 AM EDT 9:03 PM EDT
Astronomical Twilight 4:08 AM EDT 9:45 PM EDT
Moon 6:00 PM EDT (8/18) 3:02 AM EDT (8/18)
Length of Visible Light 14h 56m
Length of Day
13h 54m
Waxing Gibbous, 92% of the Moon is Illuminated
Aug 18
Waxing Gibbous
Aug 20
Full
Aug 28
Last Quarter
Sep 5
New
Sep 12
First Quarter

Hourly Weather History & Observations

Time (EDT) Temp. Dew Point Humidity Pressure Visibility Wind Dir Wind Speed Gust Speed Precip Events Conditions
12:53 AM 54.0 °F 52.0 °F 93% 30.27 in 10.0 mi Calm Calm - N/A   Clear
1:53 AM 53.1 °F 52.0 °F 96% 30.26 in 10.0 mi Calm Calm - N/A   Clear
2:45 AM 50.0 °F 48.2 °F 94% 30.25 in 1.8 mi Calm Calm - N/A   Clear
2:53 AM 51.1 °F 50.0 °F 96% 30.25 in 2.0 mi Calm Calm - N/A   Clear
3:00 AM 51.8 °F 50.0 °F 94% 30.25 in 10.0 mi Calm Calm - N/A   Clear
3:53 AM 51.1 °F 50.0 °F 96% 30.26 in 9.0 mi Calm Calm - N/A   Clear
4:53 AM 50.0 °F 48.9 °F 96% 30.25 in 6.0 mi Calm Calm - N/A   Clear
5:53 AM 51.1 °F 50.0 °F 96% 30.26 in 8.0 mi Calm Calm - N/A   Clear
6:53 AM 55.0 °F 52.0 °F 89% 30.26 in 10.0 mi SW 3.5 mph - N/A   Clear
7:53 AM 57.0 °F 55.0 °F 93% 30.26 in 10.0 mi Calm Calm - N/A   Clear
8:53 AM 60.1 °F 57.0 °F 90% 30.27 in 10.0 mi Calm Calm - N/A   Clear
9:53 AM 64.9 °F 57.9 °F 78% 30.26 in 10.0 mi SSE 4.6 mph - N/A   Clear
10:53 AM 68.0 °F 60.1 °F 76% 30.26 in 10.0 mi SE 9.2 mph - N/A   Clear
11:53 AM 70.0 °F 62.1 °F 76% 30.24 in 10.0 mi SE 8.1 mph - N/A   Clear
12:53 PM 72.0 °F 62.1 °F 71% 30.20 in 10.0 mi SE 11.5 mph - N/A   Clear
1:53 PM 75.9 °F 59.0 °F 56% 30.19 in 10.0 mi SE 10.4 mph - N/A   Clear
2:53 PM 75.9 °F 57.0 °F 52% 30.16 in 10.0 mi SE 9.2 mph - N/A   Clear
3:53 PM 75.9 °F 55.0 °F 48% 30.14 in 10.0 mi SE 10.4 mph - N/A   Clear
4:53 PM 75.9 °F 59.0 °F 56% 30.11 in 10.0 mi SE 10.4 mph - N/A   Clear
5:53 PM 75.9 °F 61.0 °F 60% 30.09 in 10.0 mi SSE 9.2 mph - N/A   Clear
6:53 PM 73.9 °F 62.1 °F 66% 30.08 in 10.0 mi South 4.6 mph - N/A   Clear
7:53 PM 70.0 °F 62.1 °F 76% 30.08 in 10.0 mi West 3.5 mph - N/A   Scattered Clouds
8:53 PM 66.9 °F 62.1 °F 84% 30.08 in 10.0 mi West 4.6 mph - N/A   Clear
9:53 PM 61.0 °F 60.1 °F 97% 30.07 in 8.0 mi Calm Calm - N/A   Clear
10:53 PM 60.1 °F 57.0 °F 90% 30.07 in 10.0 mi Calm Calm - N/A   Clear
11:53 PM 60.1 °F 54.0 °F 80% 30.06 in 10.0 mi Calm Calm - N/A   Clear